TimeEST,TemperatureF,Dew PointF,Humidity,Sea Level PressureIn,VisibilityMPH,Wind Direction,Wind SpeedMPH,Gust SpeedMPH,PrecipitationIn,Events,Conditions,WindDirDegrees,DateUTC
12:53 AM,66.9,64.9,93,30.11,10.0,NNW,5.8,-,N/A,,Scattered Clouds,330,2013-01-20 05:53:00
1:04 AM,66.2,64.4,94,30.11,2.0,NNW,3.5,-,N/A,,Mostly Cloudy,340,2013-01-20 06:04:00
1:14 AM,66.2,64.4,94,30.11,0.5,Calm,Calm,-,N/A,Fog,Fog,0,2013-01-20 06:14:00
1:43 AM,66.2,64.4,94,30.11,0.2,Calm,Calm,-,N/A,Fog,Fog,0,2013-01-20 06:43:00
1:53 AM,66.0,64.9,96,30.11,0.2,Calm,Calm,-,N/A,Fog,Fog,0,2013-01-20 06:53:00
2:53 AM,66.0,64.9,96,30.09,0.2,Calm,Calm,-,N/A,Fog,Fog,0,2013-01-20 07:53:00
3:30 AM,66.2,64.4,94,30.08,5.0,Variable,3.5,-,N/A,,Mostly Cloudy,0,2013-01-20 08:30:00
3:53 AM,66.0,66.0,100,30.08,6.0,Calm,Calm,-,N/A,,Mostly Cloudy,0,2013-01-20 08:53:00
4:21 AM,66.2,64.4,94,30.09,6.0,Calm,Calm,-,N/A,,Mostly Cloudy,0,2013-01-20 09:21:00
4:53 AM,66.0,64.9,96,30.09,6.0,Calm,Calm,-,N/A,,Mostly Cloudy,0,2013-01-20 09:53:00
5:53 AM,66.0,64.9,96,30.11,6.0,NW,4.6,-,N/A,,Mostly Cloudy,310,2013-01-20 10:53:00
6:06 AM,66.2,64.4,94,30.10,2.0,WNW,3.5,-,N/A,,Overcast,300,2013-01-20 11:06:00
6:26 AM,66.2,64.4,94,30.11,0.5,WNW,4.6,-,N/A,Fog,Fog,300,2013-01-20 11:26:00
6:53 AM,66.2,64.4,94,30.11,4.0,NNW,3.5,-,N/A,,Overcast,340,2013-01-20 11:53:00
7:53 AM,66.9,64.9,93,30.13,4.0,NNW,3.5,-,N/A,,Scattered Clouds,340,2013-01-20 12:53:00
8:53 AM,70.2,66.0,87,30.16,5.0,Calm,Calm,-,N/A,,Scattered Clouds,0,2013-01-20 13:53:00
9:53 AM,73.0,66.0,79,30.16,10.0,Calm,Calm,-,N/A,,Scattered Clouds,0,2013-01-20 14:53:00
10:53 AM,75.0,66.0,73,30.15,10.0,Calm,Calm,-,N/A,,Scattered Clouds,0,2013-01-20 15:53:00
11:53 AM,78.1,64.9,64,30.11,10.0,Variable,3.5,-,N/A,,Partly Cloudy,0,2013-01-20 16:53:00
12:53 PM,81.0,62.1,52,30.06,10.0,Calm,Calm,-,N/A,,Partly Cloudy,0,2013-01-20 17:53:00
1:53 PM,81.0,62.1,52,30.04,10.0,Variable,3.5,-,N/A,,Scattered Clouds,0,2013-01-20 18:53:00
2:53 PM,79.0,63.0,58,30.03,10.0,ESE,5.8,-,N/A,,Mostly Cloudy,110,2013-01-20 19:53:00
3:53 PM,78.8,62.6,57,30.03,10.0,SE,6.9,-,N/A,,Mostly Cloudy,140,2013-01-20 20:53:00
4:53 PM,75.9,63.0,64,30.05,10.0,SE,6.9,-,N/A,,Mostly Cloudy,130,2013-01-20 21:53:00
5:53 PM,75.0,64.0,69,30.05,10.0,SE,5.8,-,N/A,,Mostly Cloudy,140,2013-01-20 22:53:00
6:53 PM,73.9,64.0,71,30.05,10.0,SE,3.5,-,N/A,,Mostly Cloudy,130,2013-01-20 23:53:00
7:53 PM,73.0,64.0,73,30.06,10.0,Calm,Calm,-,N/A,,Scattered Clouds,0,2013-01-21 00:53:00
8:53 PM,72.0,63.0,73,30.06,10.0,Calm,Calm,-,N/A,,Scattered Clouds,0,2013-01-21 01:53:00
9:53 PM,72.0,63.0,73,30.07,10.0,Calm,Calm,-,N/A,,Partly Cloudy,0,2013-01-21 02:53:00
10:53 PM,72.0,64.0,76,30.07,10.0,Calm,Calm,-,N/A,,Mostly Cloudy,0,2013-01-21 03:53:00
11:53 PM,72.0,66.0,81,30.06,10.0,Calm,Calm,-,N/A,,Mostly Cloudy,0,2013-01-21 04:53:00